W1JCN Weather Reports


Display with metric or nautical units.
time (UTC)temp
F
wind
direction
speed
MPH
gust
MPH
rain 1hr
in
rain 24hr
in
rain mn
in
humidity
%
barometer
mb
20260901035706 61 0 0.0 0.0 0.00 0.00 0.00 92 1016.5
20260901034806 61 0 0.0 0.0 0.00 0.00 0.00 92 1016.3
20260901033906 61 0 0.0 0.0 0.00 0.00 0.00 92 1016.5
20260901033006 60 0 0.0 0.0 0.00 0.00 0.00 92 1016.6
20260901032106 60 0 0.0 0.0 0.00 0.00 0.00 92 1016.6
20260901031206 60 0 0.0 0.0 0.00 0.00 0.00 92 1016.5
20260901030306 60 0 0.0 0.0 0.00 0.00 0.00 91 1016.6
20260901025406 60 0 0.0 0.0 0.00 0.00 0.00 91 1016.7
20260901024506 60 0 0.0 0.0 0.00 0.00 0.00 91 1016.7
20260901023606 60 0 0.0 0.0 0.00 0.00 0.00 91 1016.7
20260901021806 61 0 0.0 0.0 0.00 0.00 0.00 90 1016.7
20260901020006 61 0 0.0 0.0 0.00 0.00 0.00 89 1016.6
20260901015106 61 0 0.0 0.0 0.00 0.00 0.00 89 1016.7
20260901014206 62 0 0.0 0.0 0.00 0.00 0.00 89 1016.9
20260901013306 62 0 0.0 0.0 0.00 0.00 0.00 88 1016.8
20260901012406 62 0 0.0 0.0 0.00 0.00 0.00 88 1016.7
20260901011506 63 0 0.0 0.0 0.00 0.00 0.00 88 1016.7
20260901005706 63 0 0.0 0.0 0.00 0.00 0.00 87 1016.7
20260901003006 64 0 0.0 0.0 0.00 0.00 0.00 86 1016.8
20260901001206 65 0 0.0 0.0 0.00 0.00 0.00 85 1016.7
20260901000306 66 0 0.0 0.0 0.00 0.00 0.00 84 1016.6
20260831235406 66 0 0.0 0.0 0.00 0.00 0.00 84 1016.6
20260831234506 66 0 0.0 0.0 0.00 0.00 0.00 83 1016.6
20260831233606 67 0 0.0 0.0 0.00 0.00 0.00 82 1016.7
20260831232705 67 0 0.0 0.0 0.00 0.00 0.00 82 1016.7
20260831231806 68 0 0.0 0.0 0.00 0.00 0.00 81 1016.9
20260831230905 68 0 0.0 0.0 0.00 0.00 0.00 80 1017.0
20260831230005 69 0 0.0 0.0 0.00 0.00 0.00 81 1017.1
20260831225105 69 0 0.0 0.0 0.00 0.00 0.00 80 1017.1
20260831224205 69 0 0.0 0.0 0.00 0.00 0.00 78 1017.2
20260831223305 70 0 0.0 0.0 0.00 0.00 0.00 77 1017.1
20260831222405 70 0 0.0 0.0 0.00 0.00 0.00 75 1017.2
20260831221505 70 0 0.0 0.0 0.00 0.00 0.00 76 1017.2
20260831220605 71 0 0.0 0.0 0.00 0.00 0.00 73 1017.1
20260831215705 71 0 0.0 0.0 0.00 0.00 0.00 72 1017.1
20260831214805 71 0 0.0 0.0 0.00 0.00 0.00 69 1017.0
20260831213905 72 0 0.0 0.0 0.00 0.00 0.00 73 1016.9
20260831213005 72 0 0.0 0.0 0.00 0.00 0.00 70 1016.9
20260831212105 72 142 0.0 2.0 0.00 0.00 0.00 64 1016.8
20260831211205 72 141 0.0 3.0 0.00 0.00 0.00 66 1016.8
20260831210305 72 141 0.0 2.0 0.00 0.00 0.00 65 1016.9
20260831205405 73 141 0.0 2.0 0.00 0.00 0.00 64 1016.8
20260831204505 73 140 0.0 3.0 0.00 0.00 0.00 63 1017.0
20260831203605 73 139 0.0 4.0 0.00 0.00 0.00 63 1017.3
20260831202705 73 0 0.0 0.0 0.00 0.00 0.00 64 1017.2
20260831201805 73 0 0.0 0.0 0.00 0.00 0.00 60 1017.2
20260831200905 73 110 0.0 2.0 0.00 0.00 0.00 61 1017.2
20260831195105 74 172 0.0 4.0 0.00 0.00 0.00 60 1017.2
20260831194205 74 165 0.0 5.0 0.00 0.00 0.00 61 1017.4
20260831191505 74 168 0.0 4.0 0.00 0.00 0.00 59 1017.6
20260831190605 74 169 0.0 2.0 0.00 0.00 0.00 64 1017.6
20260831185705 74 169 0.0 2.0 0.00 0.00 0.00 60 1017.6
20260831184805 74 164 0.0 4.0 0.00 0.00 0.00 63 1017.6
20260831183905 74 154 0.0 2.0 0.00 0.00 0.00 63 1017.7
20260831183005 74 149 0.0 6.0 0.00 0.00 0.00 62 1017.8
20260831181205 73 322 0.0 4.0 0.00 0.00 0.00 62 1017.9
20260831180305 72 317 0.0 4.0 0.00 0.00 0.00 62 1018.1
20260831175405 72 318 0.0 4.0 0.00 0.00 0.00 59 1018.2
20260831174505 72 0 0.0 0.0 0.00 0.00 0.00 62 1018.3
20260831173605 71 350 0.0 8.0 0.00 0.00 0.00 67 1018.5
20260831171805 71 0 0.0 0.0 0.00 0.00 0.00 60 1018.5
20260831170905 71 157 0.0 3.0 0.00 0.00 0.00 60 1018.5
20260831170005 72 154 0.0 3.0 0.00 0.00 0.00 61 1018.7
20260831165105 72 0 0.0 0.0 0.00 0.00 0.00 58 1018.9
20260831164205 72 0 0.0 0.0 0.00 0.00 0.00 55 1019.0
20260831163305 72 155 0.0 6.0 0.00 0.00 0.00 57 1019.0
20260831162405 72 203 1.0 6.0 0.00 0.00 0.00 51 1019.1
20260831161505 72 298 0.0 8.0 0.00 0.00 0.00 59 1019.2
20260831160605 72 287 0.0 3.0 0.00 0.00 0.00 62 1019.3
20260831155705 72 284 0.0 3.0 0.00 0.00 0.00 56 1019.2
20260831154805 72 288 0.0 3.0 0.00 0.00 0.00 53 1019.3
20260831153905 72 318 0.0 5.0 0.00 0.00 0.00 59 1019.4
20260831153004 73 328 0.0 2.0 0.00 0.00 0.00 61 1019.3
20260831152104 72 303 1.0 6.0 0.00 0.00 0.00 62 1019.3
20260831151204 71 0 0.0 0.0 0.00 0.00 0.00 60 1019.2
20260831150305 70 318 0.0 2.0 0.00 0.00 0.00 67 1019.2
20260831145404 68 319 1.0 3.0 0.00 0.00 0.00 66 1019.2
20260831144504 68 319 0.0 3.0 0.00 0.00 0.00 67 1019.2
20260831143604 66 0 0.0 0.0 0.00 0.00 0.00 75 1019.3
20260831142705 64 317 0.0 3.0 0.00 0.00 0.00 75 1019.4
20260831141805 63 325 1.0 5.0 0.00 0.00 0.00 79 1019.4
20260831140004 62 321 0.0 4.0 0.00 0.00 0.00 83 1019.3
20260831135104 61 308 1.0 4.0 0.00 0.00 0.00 84 1019.4
20260831133304 59 0 0.0 0.0 0.00 0.00 0.00 89 1019.1
20260831132404 58 303 0.0 3.0 0.00 0.00 0.00 90 1019.0
20260831131504 57 0 0.0 0.0 0.00 0.00 0.00 92 1019.0
20260831130604 57 312 0.0 1.0 0.00 0.00 0.00 92 1018.9
20260831124804 56 312 0.0 1.0 0.00 0.00 0.00 93 1019.0
20260831123904 56 312 0.0 1.0 0.00 0.00 0.00 94 1018.8
20260831122104 55 0 0.0 0.0 0.00 0.00 0.00 94 1018.8
20260831121204 55 0 0.0 0.0 0.00 0.00 0.00 94 1018.8
20260831120304 55 0 0.0 0.0 0.00 0.00 0.00 94 1018.8
20260831115404 54 0 0.0 0.0 0.00 0.00 0.00 94 1019.0
20260831113604 53 0 0.0 0.0 0.00 0.00 0.00 94 1018.9
20260831111804 53 0 0.0 0.0 0.00 0.00 0.00 94 1018.6
20260831110904 53 0 0.0 0.0 0.00 0.00 0.00 94 1018.5
20260831110004 53 0 0.0 0.0 0.00 0.00 0.00 94 1018.5
20260831104204 53 0 0.0 0.0 0.00 0.00 0.00 93 1018.3
20260831103304 53 0 0.0 0.0 0.00 0.00 0.00 93 1018.3
20260831102404 53 0 0.0 0.0 0.00 0.00 0.00 93 1018.4
20260831100604 53 0 0.0 0.0 0.00 0.00 0.00 93 1018.3
20260831095704 53 0 0.0 0.0 0.00 0.00 0.00 93 1018.3
20260831094804 53 0 0.0 0.0 0.00 0.00 0.00 93 1018.2
20260831093904 54 0 0.0 0.0 0.00 0.00 0.00 93 1018.2
20260831093004 54 0 0.0 0.0 0.00 0.00 0.00 93 1018.2
20260831092104 54 0 0.0 0.0 0.00 0.00 0.00 93 1018.2
20260831091204 54 0 0.0 0.0 0.00 0.00 0.00 93 1017.9
20260831090304 54 0 0.0 0.0 0.00 0.00 0.00 93 1017.9
20260831085404 54 0 0.0 0.0 0.00 0.00 0.00 92 1017.9
20260831084504 54 0 0.0 0.0 0.00 0.00 0.00 93 1018.0
20260831083604 55 0 0.0 0.0 0.00 0.00 0.00 92 1017.9
20260831082704 55 0 0.0 0.0 0.00 0.00 0.00 92 1017.8
20260831081804 55 0 0.0 0.0 0.00 0.00 0.00 92 1017.8
20260831080904 56 0 0.0 0.0 0.00 0.00 0.00 92 1017.8
20260831075103 56 0 0.0 0.0 0.00 0.00 0.00 92 1017.7
20260831074204 56 0 0.0 0.0 0.00 0.00 0.00 92 1017.6
20260831072404 57 0 0.0 0.0 0.00 0.00 0.00 92 1017.4
20260831070603 58 0 0.0 0.0 0.00 0.00 0.00 91 1017.4
20260831065704 58 0 0.0 0.0 0.00 0.00 0.00 91 1017.3
20260831064804 58 0 0.0 0.0 0.00 0.00 0.00 91 1017.3
20260831063003 59 0 0.0 0.0 0.00 0.00 0.00 91 1017.3
20260831062103 59 0 0.0 0.0 0.00 0.00 0.00 91 1017.4
20260831060303 60 0 0.0 0.0 0.00 0.00 0.00 91 1017.5
20260831055403 60 0 0.0 0.0 0.00 0.00 0.00 91 1017.4
20260831054503 60 0 0.0 0.0 0.00 0.00 0.00 91 1017.4
20260831053603 60 0 0.0 0.0 0.00 0.00 0.00 90 1017.3
20260831052703 60 0 0.0 0.0 0.00 0.00 0.00 90 1017.4
20260831051803 61 310 0.0 1.0 0.00 0.00 0.00 90 1017.2
20260831050903 61 0 0.0 0.0 0.00 0.00 0.00 90 1017.3
20260831050003 61 0 0.0 0.0 0.00 0.00 0.00 90 1017.2
20260831044203 62 0 0.0 0.0 0.00 0.00 0.00 89 1017.0
20260831043303 62 0 0.0 0.0 0.00 0.00 0.00 89 1016.9
20260831041503 62 0 0.0 0.0 0.00 0.00 0.00 88 1016.9
20260831040603 62 0 0.0 0.0 0.00 0.00 0.00 88 1016.8